Location: Cheyres
(46.8153°N, 6.7877°E)
Time: 00:29:11
(UTC+00:00)

RESURS DK-1 - Pass Details

Date: 11 May 2021
Orbit: 553 x 564 km, 69.9° (Epoch: 23 June)

Event Time Altitude Azimuth Distance (km) Brightness Sun altitude
Rises 22:57:15 0° 335° (NNW) 2,765 7.1 -24.7°
Reaches altitude 10° 22:59:31 10° 340° (NNW) 1,866 6.0 -24.7°
Enters shadow 23:03:32 52° 54° (NE) 707 2.9 -24.8°
